Time,TemperatureF,DewpointF,PressureIn,WindDirection,WindDirectionDegrees,WindSpeedMPH,WindSpeedGustMPH,Humidity,HourlyPrecipIn,Conditions,Clouds,dailyrainin,SolarRadiationWatts/m^2,SoftwareType,DateUTC
2013-01-28 00:11:00,30.0,30.0,-100.00,ESE,116,2.0,7.0,99,0.00,,,0.20,0.000000,,2013-01-28 06:11:00,
2013-01-28 00:22:00,30.0,30.0,-100.00,ESE,116,2.0,7.0,99,0.00,,,0.20,0.000000,,2013-01-28 06:22:00,
2013-01-28 00:32:00,30.0,30.0,-100.00,ESE,116,2.0,7.0,99,0.00,,,0.20,0.000000,,2013-01-28 06:32:00,
2013-01-28 00:42:00,30.0,30.0,-100.00,ESE,116,2.0,7.0,99,0.00,,,0.20,0.000000,,2013-01-28 06:42:00,
2013-01-28 01:11:00,30.0,30.0,-100.00,ESE,102,3.0,5.0,100,0.00,,,0.20,0.000000,,2013-01-28 07:11:00,
2013-01-28 01:21:00,30.0,30.0,-100.00,ESE,102,3.0,5.0,100,0.00,,,0.20,0.000000,,2013-01-28 07:21:00,
2013-01-28 01:32:00,30.0,30.0,-100.00,ESE,102,3.0,5.0,100,0.00,,,0.20,0.000000,,2013-01-28 07:32:00,
2013-01-28 01:42:00,30.0,30.0,-100.00,ESE,102,3.0,5.0,100,0.00,,,0.20,0.000000,,2013-01-28 07:42:00,
2013-01-28 02:11:00,30.0,30.0,-100.00,East,85,0.0,4.0,100,0.00,,,0.20,0.000000,,2013-01-28 08:11:00,
2013-01-28 02:21:00,30.0,30.0,-100.00,East,85,0.0,4.0,100,0.00,,,0.20,0.000000,,2013-01-28 08:21:00,
2013-01-28 02:32:00,30.0,30.0,-100.00,East,85,0.0,4.0,100,0.00,,,0.20,0.000000,,2013-01-28 08:32:00,
2013-01-28 02:42:00,30.0,30.0,-100.00,East,85,0.0,4.0,100,0.00,,,0.20,0.000000,,2013-01-28 08:42:00,
2013-01-28 03:11:00,31.0,31.0,-100.00,ENE,68,0.0,2.0,100,0.01,,,0.21,0.000000,,2013-01-28 09:11:00,
2013-01-28 03:22:00,31.0,31.0,-100.00,ENE,68,0.0,2.0,100,0.01,,,0.21,0.000000,,2013-01-28 09:22:00,
2013-01-28 03:32:00,31.0,31.0,-100.00,ENE,68,0.0,2.0,100,0.01,,,0.21,0.000000,,2013-01-28 09:32:00,
2013-01-28 03:42:00,31.0,31.0,-100.00,ENE,68,0.0,2.0,100,0.01,,,0.21,0.000000,,2013-01-28 09:42:00,
2013-01-28 04:11:00,31.0,31.0,-100.00,NW,324,0.0,2.0,100,0.00,,,0.21,0.000000,,2013-01-28 10:11:00,
2013-01-28 04:21:00,31.0,31.0,-100.00,NW,324,0.0,2.0,100,0.00,,,0.21,0.000000,,2013-01-28 10:21:00,
2013-01-28 04:32:00,31.0,31.0,-100.00,NW,324,0.0,2.0,100,0.00,,,0.21,0.000000,,2013-01-28 10:32:00,
2013-01-28 04:41:00,31.0,31.0,-100.00,NW,324,0.0,2.0,100,0.00,,,0.21,0.000000,,2013-01-28 10:41:00,
2013-01-28 05:11:00,31.0,31.0,-100.00,WNW,293,3.0,4.0,100,0.00,,,0.21,0.000000,,2013-01-28 11:11:00,
2013-01-28 05:22:00,31.0,31.0,-100.00,WNW,293,3.0,4.0,100,0.00,,,0.21,0.000000,,2013-01-28 11:22:00,
2013-01-28 05:32:00,31.0,31.0,-100.00,WNW,293,3.0,4.0,100,0.00,,,0.21,0.000000,,2013-01-28 11:32:00,
2013-01-28 05:42:00,31.0,31.0,-100.00,WNW,293,3.0,4.0,100,0.00,,,0.21,0.000000,,2013-01-28 11:42:00,
2013-01-28 06:12:00,31.0,31.0,-100.00,WNW,297,4.0,6.0,100,0.00,,,0.21,0.000000,,2013-01-28 12:12:00,
2013-01-28 06:23:00,31.0,31.0,-100.00,WNW,297,4.0,6.0,100,0.00,,,0.21,0.000000,,2013-01-28 12:23:00,
2013-01-28 06:33:00,31.0,31.0,-100.00,WNW,297,4.0,6.0,100,0.00,,,0.21,0.000000,,2013-01-28 12:33:00,
2013-01-28 06:42:00,31.0,31.0,-100.00,WNW,297,4.0,6.0,100,0.00,,,0.21,0.000000,,2013-01-28 12:42:00,
2013-01-28 07:12:00,31.0,31.0,-100.00,West,261,4.0,6.0,100,0.00,,,0.21,0.000000,,2013-01-28 13:12:00,
2013-01-28 07:23:00,31.0,31.0,-100.00,West,261,4.0,6.0,100,0.00,,,0.21,0.000000,,2013-01-28 13:23:00,
2013-01-28 07:33:00,31.0,31.0,-100.00,West,261,4.0,6.0,100,0.00,,,0.21,0.000000,,2013-01-28 13:33:00,
2013-01-28 07:42:00,31.0,31.0,-100.00,West,261,4.0,6.0,100,0.00,,,0.21,0.000000,,2013-01-28 13:42:00,
2013-01-28 08:12:00,31.0,31.0,-100.00,West,269,5.0,8.0,100,0.00,,,0.21,3.000000,,2013-01-28 14:12:00,
2013-01-28 08:22:00,31.0,31.0,-100.00,West,269,5.0,8.0,100,0.00,,,0.21,3.000000,,2013-01-28 14:22:00,
2013-01-28 08:33:00,31.0,31.0,-100.00,West,269,5.0,8.0,100,0.00,,,0.21,3.000000,,2013-01-28 14:33:00,
2013-01-28 08:43:00,31.0,31.0,-100.00,West,269,5.0,8.0,100,0.00,,,0.21,3.000000,,2013-01-28 14:43:00,
2013-01-28 09:12:00,32.0,32.0,-100.00,WNW,297,5.0,10.0,98,0.00,,,0.21,45.000000,,2013-01-28 15:12:00,
2013-01-28 09:23:00,32.0,32.0,-100.00,WNW,297,5.0,10.0,98,0.00,,,0.21,45.000000,,2013-01-28 15:23:00,
2013-01-28 09:33:00,32.0,32.0,-100.00,WNW,297,5.0,10.0,98,0.00,,,0.21,45.000000,,2013-01-28 15:33:00,
2013-01-28 09:43:00,32.0,32.0,-100.00,WNW,297,5.0,10.0,98,0.00,,,0.21,45.000000,,2013-01-28 15:43:00,
2013-01-28 10:12:00,33.0,32.0,-100.00,NW,308,7.0,11.0,95,0.00,,,0.21,124.000000,,2013-01-28 16:12:00,
2013-01-28 10:22:00,33.0,32.0,-100.00,NW,308,7.0,11.0,95,0.00,,,0.21,124.000000,,2013-01-28 16:22:00,
2013-01-28 10:32:00,33.0,32.0,-100.00,NW,308,7.0,11.0,95,0.00,,,0.21,124.000000,,2013-01-28 16:32:00,
2013-01-28 10:43:00,33.0,32.0,-100.00,NW,308,7.0,11.0,95,0.00,,,0.21,124.000000,,2013-01-28 16:43:00,
2013-01-28 11:12:00,34.0,32.0,-100.00,NW,318,5.0,12.0,92,0.00,,,0.21,162.000000,,2013-01-28 17:12:00,
2013-01-28 11:23:00,34.0,32.0,-100.00,NW,318,5.0,12.0,92,0.00,,,0.21,162.000000,,2013-01-28 17:23:00,
2013-01-28 11:32:00,34.0,32.0,-100.00,NW,318,5.0,12.0,92,0.00,,,0.21,162.000000,,2013-01-28 17:32:00,
2013-01-28 11:42:00,34.0,32.0,-100.00,NW,318,5.0,12.0,92,0.00,,,0.21,162.000000,,2013-01-28 17:42:00,
2013-01-28 12:12:00,34.0,32.0,-100.00,WNW,287,5.0,8.0,91,0.00,,,0.21,169.000000,,2013-01-28 18:12:00,
2013-01-28 12:23:00,34.0,32.0,-100.00,WNW,287,5.0,8.0,91,0.00,,,0.21,169.000000,,2013-01-28 18:23:00,
2013-01-28 12:33:00,34.0,32.0,-100.00,WNW,287,5.0,8.0,91,0.00,,,0.21,169.000000,,2013-01-28 18:33:00,
2013-01-28 12:42:00,34.0,32.0,-100.00,WNW,287,5.0,8.0,91,0.00,,,0.21,169.000000,,2013-01-28 18:42:00,
2013-01-28 13:12:00,35.0,33.0,-100.00,NW,319,6.0,10.0,91,0.00,,,0.20,180.000000,,2013-01-28 19:12:00,
2013-01-28 13:22:00,35.0,33.0,-100.00,NW,319,6.0,10.0,91,0.00,,,0.20,180.000000,,2013-01-28 19:22:00,
2013-01-28 13:32:00,35.0,33.0,-100.00,NW,319,6.0,10.0,91,0.00,,,0.20,180.000000,,2013-01-28 19:32:00,
2013-01-28 13:42:00,35.0,33.0,-100.00,NW,319,6.0,10.0,91,0.00,,,0.20,180.000000,,2013-01-28 19:42:00,
2013-01-28 14:12:00,35.0,32.0,-100.00,West,274,3.0,7.0,88,0.00,,,0.16,151.000000,,2013-01-28 20:12:00,
2013-01-28 14:22:00,35.0,32.0,-100.00,West,274,3.0,7.0,88,0.00,,,0.16,151.000000,,2013-01-28 20:22:00,
2013-01-28 14:33:00,35.0,32.0,-100.00,West,274,3.0,7.0,88,0.00,,,0.16,151.000000,,2013-01-28 20:33:00,
2013-01-28 14:42:00,35.0,32.0,-100.00,West,274,3.0,7.0,88,0.00,,,0.16,151.000000,,2013-01-28 20:42:00,
2013-01-28 15:12:00,35.0,32.0,-100.00,North,359,2.0,5.0,87,0.00,,,0.07,107.000000,,2013-01-28 21:12:00,
2013-01-28 15:22:00,35.0,32.0,-100.00,North,359,2.0,5.0,87,0.00,,,0.07,107.000000,,2013-01-28 21:22:00,
2013-01-28 15:33:00,35.0,32.0,-100.00,North,359,2.0,5.0,87,0.00,,,0.07,107.000000,,2013-01-28 21:33:00,
2013-01-28 15:43:00,35.0,32.0,-100.00,North,359,2.0,5.0,87,0.00,,,0.07,107.000000,,2013-01-28 21:43:00,
2013-01-28 16:12:00,34.0,32.0,-100.00,SE,126,3.0,7.0,91,0.00,,,0.02,69.000000,,2013-01-28 22:12:00,
2013-01-28 16:23:00,34.0,32.0,-100.00,SE,126,3.0,7.0,91,0.00,,,0.02,69.000000,,2013-01-28 22:23:00,
2013-01-28 16:32:00,34.0,32.0,-100.00,SE,126,3.0,7.0,91,0.00,,,0.02,69.000000,,2013-01-28 22:32:00,
2013-01-28 16:42:00,34.0,32.0,-100.00,SE,126,3.0,7.0,91,0.00,,,0.02,69.000000,,2013-01-28 22:42:00,
2013-01-28 17:12:00,33.0,31.0,-100.00,SE,141,4.0,7.0,93,0.00,,,0.01,15.000000,,2013-01-28 23:12:00,
2013-01-28 17:22:00,33.0,31.0,-100.00,SE,141,4.0,7.0,93,0.00,,,0.01,15.000000,,2013-01-28 23:22:00,
2013-01-28 17:32:00,33.0,31.0,-100.00,SE,141,4.0,7.0,93,0.00,,,0.01,15.000000,,2013-01-28 23:32:00,
2013-01-28 17:42:00,33.0,31.0,-100.00,SE,141,4.0,7.0,93,0.00,,,0.01,15.000000,,2013-01-28 23:42:00,
2013-01-28 18:12:00,33.0,32.0,-100.00,ESE,116,4.0,8.0,95,0.00,,,0.01,1.000000,,2013-01-29 00:12:00,
2013-01-28 18:22:00,33.0,32.0,-100.00,ESE,116,4.0,8.0,95,0.00,,,0.01,1.000000,,2013-01-29 00:22:00,
2013-01-28 18:32:00,33.0,32.0,-100.00,ESE,116,4.0,8.0,95,0.00,,,0.01,1.000000,,2013-01-29 00:32:00,
2013-01-28 18:42:00,33.0,32.0,-100.00,ESE,116,4.0,8.0,95,0.00,,,0.01,1.000000,,2013-01-29 00:42:00,
2013-01-28 19:12:00,33.0,32.0,-100.00,East,88,5.0,9.0,96,0.00,,,0.01,0.000000,,2013-01-29 01:12:00,
2013-01-28 19:23:00,33.0,32.0,-100.00,East,88,5.0,9.0,96,0.00,,,0.01,0.000000,,2013-01-29 01:23:00,
2013-01-28 19:32:00,33.0,32.0,-100.00,East,88,5.0,9.0,96,0.00,,,0.01,0.000000,,2013-01-29 01:32:00,
2013-01-28 19:42:00,33.0,32.0,-100.00,East,88,5.0,9.0,96,0.00,,,0.01,0.000000,,2013-01-29 01:42:00,
2013-01-28 20:12:00,32.0,31.0,-100.00,East,96,5.0,10.0,97,0.00,,,0.01,0.000000,,2013-01-29 02:12:00,
2013-01-28 20:22:00,32.0,31.0,-100.00,East,96,5.0,10.0,97,0.00,,,0.01,0.000000,,2013-01-29 02:22:00,
2013-01-28 20:33:00,32.0,31.0,-100.00,East,96,5.0,10.0,97,0.00,,,0.01,0.000000,,2013-01-29 02:33:00,
2013-01-28 20:42:00,32.0,31.0,-100.00,East,96,5.0,10.0,97,0.00,,,0.01,0.000000,,2013-01-29 02:42:00,
2013-01-28 21:12:00,31.0,31.0,-100.00,East,99,5.0,10.0,98,0.00,,,0.01,0.000000,,2013-01-29 03:12:00,
2013-01-28 21:22:00,31.0,31.0,-100.00,East,99,5.0,10.0,98,0.00,,,0.01,0.000000,,2013-01-29 03:22:00,
2013-01-28 21:32:00,31.0,31.0,-100.00,East,99,5.0,10.0,98,0.00,,,0.01,0.000000,,2013-01-29 03:32:00,
2013-01-28 21:42:00,31.0,31.0,-100.00,East,99,5.0,10.0,98,0.00,,,0.01,0.000000,,2013-01-29 03:42:00,
2013-01-28 22:02:00,31.0,31.0,-100.00,East,94,6.0,12.0,98,0.00,,,0.01,0.000000,,2013-01-29 04:02:00,
2013-01-28 22:11:00,31.0,31.0,-100.00,East,94,6.0,12.0,98,0.00,,,0.01,0.000000,,2013-01-29 04:11:00,
2013-01-28 22:22:00,31.0,31.0,-100.00,East,94,6.0,12.0,98,0.00,,,0.01,0.000000,,2013-01-29 04:22:00,
2013-01-28 22:32:00,31.0,31.0,-100.00,East,94,6.0,12.0,98,0.00,,,0.01,0.000000,,2013-01-29 04:32:00,
2013-01-28 22:42:00,31.0,31.0,-100.00,East,94,6.0,12.0,98,0.00,,,0.01,0.000000,,2013-01-29 04:42:00,
2013-01-28 23:12:00,32.0,31.0,-100.00,ESE,104,5.0,12.0,96,0.00,,,0.01,0.000000,,2013-01-29 05:12:00,
2013-01-28 23:21:00,32.0,31.0,-100.00,ESE,104,5.0,12.0,96,0.00,,,0.01,0.000000,,2013-01-29 05:21:00,
2013-01-28 23:32:00,32.0,31.0,-100.00,ESE,104,5.0,12.0,96,0.00,,,0.01,0.000000,,2013-01-29 05:32:00,
2013-01-28 23:42:00,32.0,31.0,-100.00,ESE,104,5.0,12.0,96,0.00,,,0.01,0.000000,,2013-01-29 05:42:00,